Location: ????????
(37.9452°N, 23.1472°E)
Time: 05:32:53
(UTC+00:00)

USA 267 - Pass Details

Date: 18 April 2024
Orbit: 1100 x 1107 km, 123.0° (Epoch: 21 May)

Event Time Altitude Azimuth Distance (km) Brightness Sun altitude
Rises 17:34:17 0° 42° (NE) 3,922 5.9 -6.1°
Reaches altitude 10° 17:36:48 10° 38° (NE) 2,963 5.3 -6.5°
Maximum altitude 17:43:10 57° 322° (NW) 1,280 4.0 -7.7°
Drops below altitude 10° 17:49:32 10° 246° (WSW) 2,958 6.2 -8.9°
Sets 17:52:03 0° 242° (WSW) 3,915 6.8 -9.3°
